Time,TemperatureF,DewpointF,PressureIn,WindDirection,WindDirectionDegrees,WindSpeedMPH,WindSpeedGustMPH,Humidity,HourlyPrecipIn,Conditions,Clouds,dailyrainin,SoftwareType,DateUTC
2013-06-14 00:02:00,52.3,48.2,29.88,WNW,292,0.0,0.0,86,0.00,,,0.00,WUHU21623XXSP,2013-06-14 05:02:00,
2013-06-14 00:07:00,52.3,48.2,29.88,WNW,292,0.0,0.0,86,0.00,,,0.00,WUHU21623XXSP,2013-06-14 05:07:00,
2013-06-14 00:12:00,52.5,48.4,29.89,NW,315,1.6,1.6,86,0.00,,,0.00,WUHU21623XXSP,2013-06-14 05:12:00,
2013-06-14 00:17:00,52.9,48.8,29.88,WNW,292,1.8,1.8,86,0.00,,,0.00,WUHU21623XXSP,2013-06-14 05:17:00,
2013-06-14 00:22:00,52.9,48.8,29.88,NW,315,3.4,5.8,86,0.00,,,0.00,WUHU21623XXSP,2013-06-14 05:22:00,
2013-06-14 00:27:00,53.2,49.1,29.88,NW,315,2.2,5.8,86,0.00,,,0.00,WUHU21623XXSP,2013-06-14 05:27:00,
2013-06-14 00:32:00,53.4,49.3,29.87,NW,315,2.7,5.1,86,0.00,,,0.00,WUHU21623XXSP,2013-06-14 05:32:00,
2013-06-14 00:37:00,53.4,49.0,29.87,NW,315,0.0,3.1,85,0.00,,,0.00,WUHU21623XXSP,2013-06-14 05:37:00,
2013-06-14 00:38:00,53.4,49.0,29.87,NW,315,0.0,3.1,85,0.00,,,0.00,WUHU21623XXSP,2013-06-14 05:38:00,
2013-06-14 01:01:00,53.2,48.8,29.88,NW,315,3.1,3.1,85,0.00,,,0.00,WUHU21623XXSP,2013-06-14 06:01:00,
2013-06-14 02:01:00,51.8,47.4,29.88,WNW,293,0.0,0.0,85,0.00,,,0.00,WUHU21623XXSP,2013-06-14 07:01:00,
2013-06-14 03:01:00,52.9,48.8,29.88,WNW,293,3.1,3.1,86,0.00,,,0.00,WUHU21623XXSP,2013-06-14 08:01:00,
2013-06-14 04:01:00,52.9,48.2,29.88,NW,315,2.5,2.5,84,0.00,,,0.00,WUHU21623XXSP,2013-06-14 09:01:00,
2013-06-14 05:01:00,52.9,47.6,29.89,NW,315,3.6,3.6,82,0.00,,,0.00,WUHU21623XXSP,2013-06-14 10:01:00,
2013-06-14 06:01:00,54.0,47.7,29.89,NNW,338,6.7,6.7,79,0.00,,,0.00,WUHU21623XXSP,2013-06-14 11:01:00,
2013-06-14 06:54:00,56.8,48.9,29.92,NW,315,5.1,5.1,75,0.00,,,0.00,WUHU21623XXSP,2013-06-14 11:54:00,
2013-06-14 06:59:00,57.0,48.7,29.92,NW,315,2.9,5.1,74,0.00,,,0.00,WUHU21623XXSP,2013-06-14 11:59:00,
2013-06-14 07:04:00,57.4,49.1,29.92,NW,315,5.8,5.8,74,0.00,,,0.00,WUHU21623XXSP,2013-06-14 12:04:00,
2013-06-14 07:09:00,57.7,49.5,29.93,NW,315,3.1,5.8,74,0.00,,,0.00,WUHU21623XXSP,2013-06-14 12:09:00,
2013-06-14 07:14:00,58.1,49.5,29.93,NW,315,0.0,3.1,73,0.00,,,0.00,WUHU21623XXSP,2013-06-14 12:14:00,
2013-06-14 07:19:00,58.6,50.0,29.94,NW,315,4.0,4.0,73,0.00,,,0.00,WUHU21623XXSP,2013-06-14 12:19:00,
2013-06-14 07:24:00,58.8,49.8,29.94,NW,315,1.6,7.4,72,0.00,,,0.00,WUHU21623XXSP,2013-06-14 12:24:00,
2013-06-14 07:29:00,59.2,49.8,29.93,NW,315,5.8,7.4,71,0.00,,,0.00,WUHU21623XXSP,2013-06-14 12:29:00,
2013-06-14 07:34:00,59.5,50.2,29.93,NW,315,4.0,5.8,71,0.00,,,0.00,WUHU21623XXSP,2013-06-14 12:34:00,
2013-06-14 07:39:00,59.7,50.0,29.92,WNW,292,4.3,6.3,70,0.00,,,0.00,WUHU21623XXSP,2013-06-14 12:39:00,
2013-06-14 07:44:00,60.1,50.0,29.93,NNW,337,0.0,6.3,71,0.00,,,0.00,WUHU21623XXSP,2013-06-14 12:44:00,
2013-06-14 07:49:00,60.6,50.9,29.93,NW,315,1.3,3.1,70,0.00,,,0.00,WUHU21623XXSP,2013-06-14 12:49:00,
2013-06-14 07:54:00,61.2,51.0,29.93,WNW,292,3.1,5.4,69,0.00,,,0.00,WUHU21623XXSP,2013-06-14 12:54:00,
2013-06-14 07:59:00,61.5,51.7,29.93,NW,315,0.0,5.4,70,0.00,,,0.00,WUHU21623XXSP,2013-06-14 12:59:00,
2013-06-14 08:04:00,62.4,51.7,29.93,ENE,67,0.0,6.9,68,0.00,,,0.00,WUHU21623XXSP,2013-06-14 13:04:00,
2013-06-14 08:09:00,62.8,52.0,29.93,ESE,112,5.8,6.9,68,0.00,,,0.00,WUHU21623XXSP,2013-06-14 13:09:00,
2013-06-14 08:14:00,63.5,52.3,29.93,NE,45,0.0,5.8,67,0.00,,,0.00,WUHU21623XXSP,2013-06-14 13:14:00,
2013-06-14 08:19:00,64.0,52.4,29.93,North,0,0.0,5.1,66,0.00,,,0.00,WUHU21623XXSP,2013-06-14 13:19:00,
2013-06-14 08:24:00,64.2,53.0,29.93,SE,135,2.0,5.1,67,0.00,,,0.00,WUHU21623XXSP,2013-06-14 13:24:00,
2013-06-14 08:29:00,64.8,52.7,29.94,NNW,337,1.6,2.2,65,0.00,,,0.00,WUHU21623XXSP,2013-06-14 13:29:00,
2013-06-14 08:34:00,64.6,52.9,29.94,NW,315,0.0,2.2,66,0.00,,,0.00,WUHU21623XXSP,2013-06-14 13:34:00,
2013-06-14 08:39:00,65.1,53.4,29.93,NW,315,0.0,0.0,66,0.00,,,0.00,WUHU21623XXSP,2013-06-14 13:39:00,
2013-06-14 08:44:00,65.1,53.0,29.93,WNW,292,2.0,2.0,65,0.00,,,0.00,WUHU21623XXSP,2013-06-14 13:44:00,
2013-06-14 08:49:00,65.8,53.7,29.94,NNE,22,4.7,4.7,65,0.00,,,0.00,WUHU21623XXSP,2013-06-14 13:49:00,
2013-06-14 08:54:00,66.0,53.0,29.93,North,0,3.6,4.7,63,0.00,,,0.00,WUHU21623XXSP,2013-06-14 13:54:00,
2013-06-14 08:59:00,66.7,54.1,29.93,East,90,6.7,6.7,64,0.00,,,0.00,WUHU21623XXSP,2013-06-14 13:59:00,
2013-06-14 09:04:00,67.6,54.6,29.93,East,90,0.0,6.7,63,0.00,,,0.00,WUHU21623XXSP,2013-06-14 14:04:00,
2013-06-14 09:09:00,68.2,54.7,29.94,NNE,22,0.0,0.0,62,0.00,,,0.00,WUHU21623XXSP,2013-06-14 14:09:00,
2013-06-14 09:14:00,68.4,55.7,29.94,ESE,112,1.8,3.8,64,0.00,,,0.00,WUHU21623XXSP,2013-06-14 14:14:00,
2013-06-14 09:19:00,69.4,56.3,29.95,East,90,0.0,3.8,63,0.00,,,0.00,WUHU21623XXSP,2013-06-14 14:19:00,
2013-06-14 09:21:00,69.6,56.0,29.94,ESE,112,0.0,3.8,62,0.00,,,0.00,WUHU21623XXSP,2013-06-14 14:21:00,
2013-06-14 10:01:00,73.8,58.3,29.95,East,90,2.5,2.5,58,0.00,,,0.00,WUHU21623XXSP,2013-06-14 15:01:00,
2013-06-14 11:01:00,73.2,57.7,29.93,SE,135,2.5,2.5,58,0.00,,,0.00,WUHU21623XXSP,2013-06-14 16:01:00,
2013-06-14 12:01:00,69.6,55.7,29.92,ESE,113,0.0,0.0,61,0.00,,,0.00,WUHU21623XXSP,2013-06-14 17:01:00,
2013-06-14 13:01:00,71.1,53.7,29.93,West,270,0.0,0.0,54,0.00,,,0.00,WUHU21623XXSP,2013-06-14 18:01:00,
2013-06-14 14:01:00,72.7,55.7,29.92,East,90,0.0,0.0,55,0.00,,,0.00,WUHU21623XXSP,2013-06-14 19:01:00,
2013-06-14 15:01:00,73.0,55.5,29.90,ENE,68,2.5,2.5,54,0.00,,,0.00,WUHU21623XXSP,2013-06-14 20:01:00,
2013-06-14 16:01:00,73.9,55.3,29.89,NW,315,0.0,0.0,52,0.00,,,0.00,WUHU21623XXSP,2013-06-14 21:01:00,
2013-06-14 17:01:00,72.7,53.6,29.86,SE,135,0.0,0.0,51,0.00,,,0.00,WUHU21623XXSP,2013-06-14 22:01:00,
2013-06-14 18:01:00,70.9,50.3,29.85,SE,135,8.5,8.5,48,0.00,,,0.00,WUHU21623XXSP,2013-06-14 23:01:00,
2013-06-14 19:01:00,66.7,47.0,29.85,ESE,113,0.0,0.0,49,0.00,,,0.00,WUHU21623XXSP,2013-06-15 00:01:00,
2013-06-14 20:01:00,63.9,47.0,29.85,ESE,113,2.5,2.5,54,0.00,,,0.00,WUHU21623XXSP,2013-06-15 01:01:00,
2013-06-14 21:01:00,61.2,46.0,29.86,ESE,113,0.0,0.0,57,0.00,,,0.00,WUHU21623XXSP,2013-06-15 02:01:00,
2013-06-14 22:01:00,58.3,45.9,29.86,ESE,113,0.0,0.0,63,0.00,,,0.00,WUHU21623XXSP,2013-06-15 03:01:00,
2013-06-14 23:01:00,55.9,46.7,29.85,SE,135,2.2,2.2,71,0.00,,,0.00,WUHU21623XXSP,2013-06-15 04:01:00,